Weather History for KBVE - January, 2014

Change the Weather History Date:

Sunday, January 12, 2014

  Actual Average Record
Temperature  
Mean Temperature 60 °F -  
Max Temperature 73 °F - - ()
Min Temperature 48 °F - - ()
Degree Days  
Heating Degree Days 4    
Growing Degree Days 10 (Base 50)    
Moisture  
Dew Point 41 °F    
Average Humidity 54    
Maximum Humidity 75    
Minimum Humidity 24    
Precipitation  
Precipitation 0.00 in - - ()
Sea Level Pressure  
Sea Level Pressure 30.17 in    
Wind  
Wind Speed 4 mph (East)    
Max Wind Speed 9 mph    
Max Gust Speed -    
Visibility 10 miles    
Events      
T = Trace of Precipitation, MM = Missing Value Source: NWS Daily Summary

Daily Weather History Graph

Daily Weather History Graph

Search for Another Location

Airport or City:

Trip Planner

Search our weather history database for the weather conditions in past years. The results will help you decide how hot, cold, wet, or windy it might be!

Date:

Astronomy

Jan. 12, 2014 Rise Set
Actual Time 6:53 AM CST 5:19 PM CST
Civil Twilight 6:27 AM CST 5:44 PM CST
Nautical Twilight 5:58 AM CST 6:14 PM CST
Astronomical Twilight 5:29 AM CST 6:42 PM CST
Moon 2:45 PM CST (1/12) 3:53 AM CST (1/12)
Length of Visible Light 11h 17m
Length of Day
10h 25m
Waxing Gibbous, 90% of the Moon is Illuminated
Jan 12
Waxing Gibbous
Jan 15
Full
Jan 23
Last Quarter
Jan 30
New
Feb 6
First Quarter

Hourly Weather History & Observations

Time (CST) Temp. Dew Point Humidity Pressure Visibility Wind Dir Wind Speed Gust Speed Precip Events Conditions
12:51 AM 52.0 °F 43.0 °F 71% 30.14 in 10.0 mi West 3.5 mph - N/A   Clear
1:51 AM 53.1 °F 41.0 °F 64% 30.14 in 10.0 mi NW 3.5 mph - N/A   Clear
2:51 AM 51.1 °F 37.0 °F 59% 30.14 in 10.0 mi NNW 3.5 mph - N/A   Clear
3:51 AM 52.0 °F 36.0 °F 54% 30.15 in 10.0 mi Calm Calm - N/A   Clear
4:51 AM 50.0 °F 37.0 °F 61% 30.16 in 10.0 mi Calm Calm - N/A   Clear
5:51 AM 48.0 °F 37.0 °F 66% 30.17 in 10.0 mi Calm Calm - N/A   Clear
6:51 AM 48.9 °F 39.9 °F 71% 30.19 in 10.0 mi Calm Calm - N/A   Clear
7:51 AM 55.9 °F 44.1 °F 64% 30.20 in 10.0 mi Calm Calm - N/A   Clear
8:51 AM 64.9 °F 37.0 °F 36% 30.23 in 10.0 mi East 3.5 mph - N/A   Clear
9:51 AM 68.0 °F 37.9 °F 33% 30.24 in 10.0 mi East 3.5 mph - N/A   Clear
10:51 AM 72.0 °F 36.0 °F 27% 30.23 in 10.0 mi East 5.8 mph - N/A   Clear
11:51 AM 73.0 °F 37.0 °F 27% 30.20 in 10.0 mi East 6.9 mph - N/A   Clear
12:51 PM 71.1 °F 35.1 °F 27% 30.18 in 10.0 mi ESE 9.2 mph - N/A   Clear
1:51 PM 73.9 °F 35.1 °F 24% 30.16 in 10.0 mi ESE 9.2 mph - N/A   Clear
2:51 PM 69.1 °F 37.0 °F 31% 30.14 in 10.0 mi ESE 9.2 mph - N/A   Clear
3:51 PM 70.0 °F 39.0 °F 32% 30.14 in 10.0 mi ESE 8.1 mph - N/A   Clear
4:51 PM 64.0 °F 44.1 °F 48% 30.15 in 10.0 mi ENE 3.5 mph - N/A   Clear
5:51 PM 55.9 °F 46.0 °F 69% 30.15 in 10.0 mi ENE 3.5 mph - N/A   Clear
6:51 PM 55.0 °F 46.9 °F 74% 30.16 in 10.0 mi East 4.6 mph - N/A   Clear
7:51 PM 55.9 °F 46.9 °F 72% 30.15 in 10.0 mi East 6.9 mph - N/A   Clear
8:51 PM 55.9 °F 48.0 °F 75% 30.16 in 10.0 mi ESE 4.6 mph - N/A   Clear
9:51 PM 57.0 °F 48.9 °F 74% 30.16 in 10.0 mi SE 4.6 mph - N/A   Clear
10:51 PM 61.0 °F 50.0 °F 67% 30.14 in 10.0 mi SE 4.6 mph - N/A   Clear
11:51 PM 60.1 °F 51.1 °F 72% 30.11 in 10.0 mi SE 5.8 mph - N/A   Clear